Погода в Чупаховке

Украина / Сумская область     50°22′24″N   34°35′01″E
темп.,
°C
ветер,
м/с
пор.,
м/с
влажн.,
%
обл.,
%
осадки,
мм/ч
давл.,
гПа
погр.,
м
21 января, пт
пт2123:00−4ю61391100 0.0 1008348
02:00−3ю51097100 0.7 1006366
05:00−3юз51197100 1.7 1004474
08:00−3зюз61193100 1.9 1005508
11:00−3зюз7128889 0.1 1005842
14:00−3юз81392100 0.3 10051023
17:00−4зюз81585100 0.1 1006752
20:00−4юз7158994 0.1 1006614
22 января, сб
сб2223:00−5юз71392100 0.1 1007593
02:00−5юз7139291 0.2 1007525
05:00−6юз61294100 0.1 1006451
08:00−5ююз5109599 0.4 1008339
11:00−3зюз4794100 0.3 1009518
14:00−3зюз479081 0.4 1010528
17:00−7ююз369673 0.0 101287
20:00−8ююз379677 0.1 101493
23 января, вс
вс2323:00−11ююз249762 0.0 101544
02:00−11ю229879 0.1 101628
05:00−11юв229885 0.1 101719
08:00−11в249776 0.2 101960
11:00−7в359380 0.0 1021176
14:00−6св3794100 0.0 1022293
17:00−8ссв4994100 0.0 1024229
20:00−8ссв51292100 0.0 1024304
24 января, пн
пн2423:00−8с6139162 0.0 1024345
02:00−8ссв71592100 0.1 1023502
05:00−7ссв71392100 0.1 1022459
08:00−6ссв61295100 0.6 1023443
11:00−3св6109583 0.6 1024545
14:00−3св599196 0.6 1024542
17:00−6ссв4994100 0.1 1025222
20:00−7ссв4895100 0.1 1025258
25 января, вт
вт2523:00−8ссв4796100 0.1 1025211
02:00−7ссв3796100 0.3 1024232
05:00−9ссв3597100 0.1 102386
08:00−9ссв239662 0.2 102389
11:00−7вюв129395 0.1 1023198
14:00−5юз1190100 0.1 1021247
17:00−8ююв1198100 0.1 102110
20:00−8ю2597100 0.2 1022106